Zurück zum Katalog

STARLINK-35816

AktivKommunikationVLEO
NORAD 66499·PAYLOAD·🇺🇸 United States

Gestartet Nov 15, 2025 von Cape Canaveral Space Force Station

Loading…

Nächste Überflüge (nächste 24 Stunden)

TLE

AktuellSource: CelesTrak SupGP

Epoche: Sep 14, 2026, 21:25 UTC

1 66499C 25263Q   26257.89284722  .00004539  00000+0  16445-3 0  2576
2 66499  43.0014   2.5097 0001571 281.1861 353.2943 15.27563979    16

Verfolge STARLINK-35816 in Echtzeit mit AllMySat

Download on the App Store